Location: Gro�bocka
(50.8204°N, 11.9702°E)
Time: 07:40:01
(UTC+00:00)

Cosmos 2082 - Pass Details

Date: 29 October 2020
Orbit: 832 x 857 km, 71.0° (Epoch: 01 December)

Event Time Altitude Azimuth Distance (km) Brightness Sun altitude
Rises 16:26:26 0° 332° (NNW) 3,436 7.1 -6.1°
Reaches altitude 10° 16:29:03 10° 340° (NNW) 2,499 6.3 -6.5°
Maximum altitude 16:34:27 40° 49° (NE) 1,249 4.2 -7.3°
Drops below altitude 10° 16:39:49 10° 118° (ESE) 2,490 5.7 -8.1°
Sets 16:42:25 0° 126° (SE) 3,422 6.5 -8.5°
